Time,TemperatureF,DewpointF,PressureIn,WindDirection,WindDirectionDegrees,WindSpeedMPH,WindSpeedGustMPH,Humidity,HourlyPrecipIn,Conditions,Clouds,dailyrainin,SolarRadiationWatts/m^2,SoftwareType,DateUTC
2013-06-08 00:23:00,63.0,59.0,-100.00,NNE,32,1.0,7.0,87,0.00,,,0.00,0.000000,,2013-06-08 04:23:00,
2013-06-08 00:33:00,63.0,59.0,-100.00,NNE,32,1.0,7.0,87,0.00,,,0.00,0.000000,,2013-06-08 04:33:00,
2013-06-08 00:42:00,63.0,59.0,-100.00,NNE,32,1.0,7.0,87,0.00,,,0.00,0.000000,,2013-06-08 04:42:00,
2013-06-08 00:53:00,63.0,59.0,-100.00,NNE,32,1.0,7.0,87,0.00,,,0.00,0.000000,,2013-06-08 04:53:00,
2013-06-08 01:22:00,62.0,57.0,-100.00,East,79,4.0,7.0,85,0.00,,,0.00,0.000000,,2013-06-08 05:22:00,
2013-06-08 01:32:00,62.0,57.0,-100.00,East,79,4.0,7.0,85,0.00,,,0.00,0.000000,,2013-06-08 05:32:00,
2013-06-08 01:42:00,62.0,57.0,-100.00,East,79,4.0,7.0,85,0.00,,,0.00,0.000000,,2013-06-08 05:42:00,
2013-06-08 01:52:00,62.0,57.0,-100.00,East,79,4.0,7.0,85,0.00,,,0.00,0.000000,,2013-06-08 05:52:00,
2013-06-08 02:22:00,60.0,57.0,-100.00,East,79,2.0,7.0,90,0.00,,,0.00,0.000000,,2013-06-08 06:22:00,
2013-06-08 02:32:00,60.0,57.0,-100.00,East,79,2.0,7.0,90,0.00,,,0.00,0.000000,,2013-06-08 06:32:00,
2013-06-08 02:42:00,60.0,57.0,-100.00,East,79,2.0,7.0,90,0.00,,,0.00,0.000000,,2013-06-08 06:42:00,
2013-06-08 02:52:00,60.0,57.0,-100.00,East,79,2.0,7.0,90,0.00,,,0.00,0.000000,,2013-06-08 06:52:00,
2013-06-08 03:22:00,59.0,57.0,-100.00,East,84,3.0,5.0,92,0.00,,,0.00,0.000000,,2013-06-08 07:22:00,
2013-06-08 03:32:00,59.0,57.0,-100.00,East,84,3.0,5.0,92,0.00,,,0.00,0.000000,,2013-06-08 07:32:00,
2013-06-08 03:42:00,59.0,57.0,-100.00,East,84,3.0,5.0,92,0.00,,,0.00,0.000000,,2013-06-08 07:42:00,
2013-06-08 03:52:00,59.0,57.0,-100.00,East,84,3.0,5.0,92,0.00,,,0.00,0.000000,,2013-06-08 07:52:00,
2013-06-08 04:22:00,58.0,56.0,-100.00,East,85,4.0,6.0,93,0.00,,,0.00,0.000000,,2013-06-08 08:22:00,
2013-06-08 04:32:00,58.0,56.0,-100.00,East,85,4.0,6.0,93,0.00,,,0.00,0.000000,,2013-06-08 08:32:00,
2013-06-08 04:42:00,58.0,56.0,-100.00,East,85,4.0,6.0,93,0.00,,,0.00,0.000000,,2013-06-08 08:42:00,
2013-06-08 04:52:00,58.0,56.0,-100.00,East,85,4.0,6.0,93,0.00,,,0.00,0.000000,,2013-06-08 08:52:00,
2013-06-08 05:12:00,58.0,56.0,-100.00,ENE,66,4.0,6.0,93,0.00,,,0.00,0.000000,,2013-06-08 09:12:00,
2013-06-08 05:22:00,58.0,56.0,-100.00,ENE,66,4.0,6.0,93,0.00,,,0.00,0.000000,,2013-06-08 09:22:00,
2013-06-08 05:33:00,58.0,56.0,-100.00,ENE,66,4.0,6.0,93,0.00,,,0.00,0.000000,,2013-06-08 09:33:00,
2013-06-08 05:43:00,58.0,56.0,-100.00,ENE,66,4.0,6.0,93,0.00,,,0.00,0.000000,,2013-06-08 09:43:00,
2013-06-08 05:53:00,58.0,56.0,-100.00,ENE,66,4.0,6.0,93,0.00,,,0.00,0.000000,,2013-06-08 09:53:00,
2013-06-08 06:23:00,57.0,55.0,-100.00,ENE,69,3.0,6.0,94,0.00,,,0.00,0.000000,,2013-06-08 10:23:00,
2013-06-08 06:33:00,57.0,55.0,-100.00,ENE,69,3.0,6.0,94,0.00,,,0.00,0.000000,,2013-06-08 10:33:00,
2013-06-08 06:43:00,57.0,55.0,-100.00,ENE,69,3.0,6.0,94,0.00,,,0.00,0.000000,,2013-06-08 10:43:00,
2013-06-08 06:52:00,57.0,55.0,-100.00,ENE,69,3.0,6.0,94,0.00,,,0.00,0.000000,,2013-06-08 10:52:00,
2013-06-08 08:22:00,59.0,56.0,-100.00,East,90,5.0,8.0,91,-99.99,,,0.00,53.000000,,2013-06-08 12:22:00,
2013-06-08 08:33:00,59.0,56.0,-100.00,East,90,5.0,8.0,91,-99.99,,,0.00,53.000000,,2013-06-08 12:33:00,
2013-06-08 08:42:00,59.0,56.0,-100.00,East,90,5.0,8.0,91,-99.99,,,0.00,53.000000,,2013-06-08 12:42:00,
2013-06-08 08:52:00,59.0,56.0,-100.00,East,90,5.0,8.0,91,-99.99,,,0.00,53.000000,,2013-06-08 12:52:00,
2013-06-08 09:22:00,61.0,57.0,-100.00,ENE,77,4.0,8.0,87,0.00,,,-99.99,95.000000,,2013-06-08 13:22:00,
2013-06-08 09:32:00,61.0,57.0,-100.00,ENE,77,4.0,8.0,87,0.00,,,-99.99,95.000000,,2013-06-08 13:32:00,
2013-06-08 09:42:00,61.0,57.0,-100.00,ENE,77,4.0,8.0,87,0.00,,,-99.99,95.000000,,2013-06-08 13:42:00,
2013-06-08 09:52:00,61.0,57.0,-100.00,ENE,77,4.0,8.0,87,0.00,,,-99.99,95.000000,,2013-06-08 13:52:00,
2013-06-08 10:22:00,64.0,59.0,-100.00,ENE,71,5.0,8.0,83,0.00,,,0.00,147.000000,,2013-06-08 14:22:00,
2013-06-08 10:32:00,64.0,59.0,-100.00,ENE,71,5.0,8.0,83,0.00,,,0.00,147.000000,,2013-06-08 14:32:00,
2013-06-08 10:42:00,64.0,59.0,-100.00,ENE,71,5.0,8.0,83,0.00,,,0.00,147.000000,,2013-06-08 14:42:00,
2013-06-08 10:52:00,64.0,59.0,-100.00,ENE,71,5.0,8.0,83,0.00,,,0.00,147.000000,,2013-06-08 14:52:00,
2013-06-08 11:22:00,67.0,60.0,-100.00,East,93,4.0,8.0,79,0.00,,,0.00,227.000000,,2013-06-08 15:22:00,
2013-06-08 11:33:00,67.0,60.0,-100.00,East,93,4.0,8.0,79,0.00,,,0.00,227.000000,,2013-06-08 15:33:00,
2013-06-08 11:43:00,67.0,60.0,-100.00,East,93,4.0,8.0,79,0.00,,,0.00,227.000000,,2013-06-08 15:43:00,
2013-06-08 11:53:00,67.0,60.0,-100.00,East,93,4.0,8.0,79,0.00,,,0.00,227.000000,,2013-06-08 15:53:00,
2013-06-08 12:23:00,72.0,60.0,-100.00,ESE,123,5.0,11.0,66,0.00,,,0.00,387.000000,,2013-06-08 16:23:00,
2013-06-08 12:33:00,72.0,60.0,-100.00,ESE,123,5.0,11.0,66,0.00,,,0.00,387.000000,,2013-06-08 16:33:00,
2013-06-08 12:42:00,72.0,60.0,-100.00,ESE,123,5.0,11.0,66,0.00,,,0.00,387.000000,,2013-06-08 16:42:00,
2013-06-08 12:53:00,72.0,60.0,-100.00,ESE,123,5.0,11.0,66,0.00,,,0.00,387.000000,,2013-06-08 16:53:00,
2013-06-08 13:23:00,73.0,59.0,-100.00,East,101,4.0,10.0,61,0.00,,,0.00,423.000000,,2013-06-08 17:23:00,
2013-06-08 13:32:00,73.0,59.0,-100.00,East,101,4.0,10.0,61,0.00,,,0.00,423.000000,,2013-06-08 17:32:00,
2013-06-08 13:42:00,73.0,59.0,-100.00,East,101,4.0,10.0,61,0.00,,,0.00,423.000000,,2013-06-08 17:42:00,
2013-06-08 13:52:00,73.0,59.0,-100.00,East,101,4.0,10.0,61,0.00,,,0.00,423.000000,,2013-06-08 17:52:00,
2013-06-08 14:22:00,75.0,61.0,-100.00,ESE,120,5.0,11.0,61,0.00,,,0.00,431.000000,,2013-06-08 18:22:00,
2013-06-08 14:32:00,75.0,61.0,-100.00,ESE,120,5.0,11.0,61,0.00,,,0.00,431.000000,,2013-06-08 18:32:00,
2013-06-08 14:42:00,75.0,61.0,-100.00,ESE,120,5.0,11.0,61,0.00,,,0.00,431.000000,,2013-06-08 18:42:00,
2013-06-08 14:52:00,75.0,61.0,-100.00,ESE,120,5.0,11.0,61,0.00,,,0.00,431.000000,,2013-06-08 18:52:00,
2013-06-08 15:22:00,77.0,60.0,-100.00,ESE,104,3.0,10.0,56,0.00,,,0.00,450.000000,,2013-06-08 19:22:00,
2013-06-08 15:32:00,77.0,60.0,-100.00,ESE,104,3.0,10.0,56,0.00,,,0.00,450.000000,,2013-06-08 19:32:00,
2013-06-08 15:42:00,77.0,60.0,-100.00,ESE,104,3.0,10.0,56,0.00,,,0.00,450.000000,,2013-06-08 19:42:00,
2013-06-08 15:53:00,77.0,60.0,-100.00,ESE,104,3.0,10.0,56,0.00,,,0.00,450.000000,,2013-06-08 19:53:00,
2013-06-08 16:22:00,75.0,59.0,-100.00,ESE,105,4.0,9.0,58,0.00,,,0.00,261.000000,,2013-06-08 20:22:00,
2013-06-08 16:32:00,75.0,59.0,-100.00,ESE,105,4.0,9.0,58,0.00,,,0.00,261.000000,,2013-06-08 20:32:00,
2013-06-08 16:42:00,75.0,59.0,-100.00,ESE,105,4.0,9.0,58,0.00,,,0.00,261.000000,,2013-06-08 20:42:00,
2013-06-08 16:52:00,75.0,59.0,-100.00,ESE,105,4.0,9.0,58,0.00,,,0.00,261.000000,,2013-06-08 20:52:00,
2013-06-08 17:22:00,74.0,63.0,-100.00,ESE,122,2.0,5.0,68,0.00,,,0.00,83.000000,,2013-06-08 21:22:00,
2013-06-08 17:33:00,74.0,63.0,-100.00,ESE,122,2.0,5.0,68,0.00,,,0.00,83.000000,,2013-06-08 21:33:00,
2013-06-08 17:43:00,74.0,63.0,-100.00,ESE,122,2.0,5.0,68,0.00,,,0.00,83.000000,,2013-06-08 21:43:00,
2013-06-08 17:53:00,74.0,63.0,-100.00,ESE,122,2.0,5.0,68,0.00,,,0.00,83.000000,,2013-06-08 21:53:00,
2013-06-08 18:23:00,77.0,62.0,-100.00,ESE,116,5.0,9.0,60,0.00,,,0.00,260.000000,,2013-06-08 22:23:00,
2013-06-08 18:33:00,77.0,62.0,-100.00,ESE,116,5.0,9.0,60,0.00,,,0.00,260.000000,,2013-06-08 22:33:00,
2013-06-08 18:42:00,77.0,62.0,-100.00,ESE,116,5.0,9.0,60,0.00,,,0.00,260.000000,,2013-06-08 22:42:00,
2013-06-08 18:52:00,77.0,62.0,-100.00,ESE,116,5.0,9.0,60,0.00,,,0.00,260.000000,,2013-06-08 22:52:00,
2013-06-08 19:22:00,76.0,62.0,-100.00,ESE,120,3.0,7.0,61,0.00,,,0.00,191.000000,,2013-06-08 23:22:00,
2013-06-08 19:32:00,76.0,62.0,-100.00,ESE,120,3.0,7.0,61,0.00,,,0.00,191.000000,,2013-06-08 23:32:00,
2013-06-08 19:42:00,76.0,62.0,-100.00,ESE,120,3.0,7.0,61,0.00,,,0.00,191.000000,,2013-06-08 23:42:00,
2013-06-08 19:52:00,76.0,62.0,-100.00,ESE,120,3.0,7.0,61,0.00,,,0.00,191.000000,,2013-06-08 23:52:00,
2013-06-08 20:22:00,74.0,63.0,-100.00,ENE,74,2.0,5.0,69,0.00,,,0.00,93.000000,,2013-06-09 00:22:00,
2013-06-08 20:32:00,74.0,63.0,-100.00,ENE,74,2.0,5.0,69,0.00,,,0.00,93.000000,,2013-06-09 00:32:00,
2013-06-08 20:42:00,74.0,63.0,-100.00,ENE,74,2.0,5.0,69,0.00,,,0.00,93.000000,,2013-06-09 00:42:00,
2013-06-08 20:52:00,74.0,63.0,-100.00,ENE,74,2.0,5.0,69,0.00,,,0.00,93.000000,,2013-06-09 00:52:00,
2013-06-08 21:22:00,70.0,63.0,-100.00,East,95,2.0,3.0,79,0.00,,,0.00,6.000000,,2013-06-09 01:22:00,
2013-06-08 21:32:00,70.0,63.0,-100.00,East,95,2.0,3.0,79,0.00,,,0.00,6.000000,,2013-06-09 01:32:00,
2013-06-08 21:42:00,70.0,63.0,-100.00,East,95,2.0,3.0,79,0.00,,,0.00,6.000000,,2013-06-09 01:42:00,
2013-06-08 21:52:00,70.0,63.0,-100.00,East,95,2.0,3.0,79,0.00,,,0.00,6.000000,,2013-06-09 01:52:00,
2013-06-08 22:22:00,67.0,62.0,-100.00,ESE,110,0.0,3.0,85,0.00,,,0.00,0.000000,,2013-06-09 02:22:00,
2013-06-08 22:32:00,67.0,62.0,-100.00,ESE,110,0.0,3.0,85,0.00,,,0.00,0.000000,,2013-06-09 02:32:00,
2013-06-08 22:42:00,67.0,62.0,-100.00,ESE,110,0.0,3.0,85,0.00,,,0.00,0.000000,,2013-06-09 02:42:00,
2013-06-08 22:52:00,67.0,62.0,-100.00,ESE,110,0.0,3.0,85,0.00,,,0.00,0.000000,,2013-06-09 02:52:00,
2013-06-08 23:12:00,68.0,62.0,-100.00,East,100,3.0,6.0,80,0.00,,,0.00,0.000000,,2013-06-09 03:12:00,
2013-06-08 23:22:00,68.0,62.0,-100.00,East,100,3.0,6.0,80,0.00,,,0.00,0.000000,,2013-06-09 03:22:00,
2013-06-08 23:33:00,68.0,62.0,-100.00,East,100,3.0,6.0,80,0.00,,,0.00,0.000000,,2013-06-09 03:33:00,
2013-06-08 23:43:00,68.0,62.0,-100.00,East,100,3.0,6.0,80,0.00,,,0.00,0.000000,,2013-06-09 03:43:00,
2013-06-08 23:53:00,68.0,62.0,-100.00,East,100,3.0,6.0,80,0.00,,,0.00,0.000000,,2013-06-09 03:53:00,